Regional Weather Roundup
Issued by NWS

Home | Current Version | Previous Version | Text Only | Print | Product List | Glossary On
Versions: 1 2 3 4 5 6 7 8 9 10 11 12 13 14 15 16 17 18 19 20 21 22 23 24 25 26 27 28 29 30 31 32 33 34 35 36 37 38 39 40 41 42 43 44 45 46 47 48 49 50
000
ASUS45 KTFX 230419
RWRMT
MONTANA HOURLY WEATHER ROUNDUP
NATIONAL WEATHER SERVICE GREAT FALLS MT
1019 PM MDT TUE JUL 22 2014

NOTE: "FAIR" INDICATES FEW OR NO CLOUDS BELOW 12000 FEET WITH NO
SIGNIFICANT WEATHER AND/OR OBSTRUCTIONS TO VISIBILITY.

* THESE STATIONS ARE NOT UNDER NWS QUALITY CONTROL. THEY DO NOT
   REPORT WEATHER SUCH AS PRECIPITATION OR FOG.

MTZ001>007-043-230500-
WEST OF THE DIVIDE
CITY           SKY/WX    TMP DP  RH WIND       PRES   REMARKS
KALISPELL      MOCLDY    61  57  87 W3        30.15S
MISSOULA       PTCLDY    73  48  41 NW10G22   30.11R
BUTTE          CLOUDY    66  48  52 CALM      30.27R
MULLAN PASS    MOCLDY    59  48  67 CALM      30.28F
* ESSEX        N/A       60  57  90 SE1        N/A
* LINCOLN      N/A       69  60  73 W3G9       N/A
* LOOKOUT PASS N/A       60  55  84 SE2        N/A
* POLSON       N/A       60  52  75 N2         N/A
* RONAN APT    PTCLDY    66  55  68 N9         N/A
* SEELEY LAKE  N/A       71  47  43 S3G13      N/A
* THOMP F APT  MOCLDY    71  35  27 NE1G10     N/A
* YAAK HILL    N/A       63  56  78 N/A        N/A
$$

MTZ008-052>055-230500-
SOUTHWEST MONTANA
CITY           SKY/WX    TMP DP  RH WIND       PRES   REMARKS
BOZEMAN        MOCLDY    66  52  61 CALM      30.20R
DILLON         PTCLDY    68  48  49 NE6       30.21R
W YELLOWSTONE  CLEAR     54  48  80 SW3       30.36R
* THREE FORKS  PTCLDY    70  63  79 NW8        N/A
* BOULDER HILL N/A       62  43  50 N4         N/A
* MONIDA PASS  N/A       69  39  34 SE3        N/A
* RAYNOLDS PAS N/A       61  41  48 SE8        N/A
* WHITEHALL    N/A       72  56  57 E4         N/A
* WISE RIVER   N/A       64  51  63 S3G10      N/A
$$

MTZ009>010-012-014-046-048-049-054-230500-
EAST SLOPES AND CENTRAL MONTANA
CITY           SKY/WX    TMP DP  RH WIND       PRES   REMARKS
CUT BANK       TSTM      63  55  75 NE5       30.24R
GREAT FALLS    MOCLDY    72  55  55 E12       30.17R
HELENA         MOCLDY    70  55  59 NW5       30.18R
MALMSTROM AFB  MOCLDY    70  54  57 E7        30.18R
* CONRAD       PTCLDY    64  61  90 N/A        N/A
* DEARBORN     N/A       73  57  57 NE1        N/A
* EAST GLACIER N/A       61  50  67 NW2        N/A
* MONARCH      N/A       62  54  75 E7         N/A
* PENDROY      N/A       69  49  49 N10        N/A
* SAINT MARY   N/A       55  51  86 S3G8       N/A
* SWEET GRASS  N/A       66  52  61 E8G13      N/A
* WHITE SULPH  N/A       62  52  70 NE6G11     N/A
$$

MTZ011-013-016-021-035-040-045-047-050-051-230500-
NORTH CENTRAL MONTANA
CITY           SKY/WX    TMP DP  RH WIND       PRES   REMARKS
HAVRE          PTCLDY    72  55  55 E9        30.17R
LEWISTOWN      MOCLDY    64  57  78 SE9       30.25R
* FORT BENTON  MOCLDY    77  54  45 E8        30.16R
* CHESTER      N/A       73  50  44 E5G11      N/A
* DENTON       N/A       66  53  63 SE7        N/A
* GEYSER       N/A       66  59  78 NE2        N/A
* JUDITH GAP   N/A       59  58  97 N/A        N/A
* LOMA         N/A       76  53  45 E9         N/A
$$

MTZ017>020-022>027-061-062-230500-
NORTHEAST MONTANA
CITY           SKY/WX    TMP DP  RH WIND       PRES   REMARKS
GLASGOW        MOCLDY    72  52  49 E9        30.23R
GLENDIVE       CLOUDY    68  61  78 SW3       30.26R
JORDAN         CLOUDY    75  54  48 SE10      30.23R
SIDNEY         MOCLDY    73  61  66 S3        30.25R
WOLF POINT     CLOUDY    72  54  53 E6        30.23R
* BEAVER HILL  N/A       66  62  87 S9         N/A
* CIRCLE       N/A       71  56  59 N/A        N/A
* LINDSAY DVD  N/A       66  60  81 SE6        N/A
* NAVAJO       N/A       68  58  71 E6         N/A
* SACO         N/A       67  55  66 NE8        N/A
$$

MTZ028>042-056>058-230500-
SOUTHCENTRAL AND SOUTHEAST MONTANA
CITY           SKY/WX    TMP DP  RH WIND       PRES   REMARKS
BAKER          MOCLDY    64  63  97 SE8       30.26R
BILLINGS       PTCLDY    68  55  63 SE6       30.25R
LIVINGSTON     MOCLDY    70  52  53 E22G31    30.26R
MILES CITY     CLOUDY    73  63  71 NE5       30.27R
* LAUREL APT   PTCLDY    63  55  75 N/A        N/A
* ROUNDUP APT  MOCLDY    68  57  68 N/A        N/A
* ALZADA       N/A       67  61  81 NE12G20    N/A
* HYSHAM       N/A       71  59  66 NE6G18     N/A
* REED POINT   N/A       64  62  93 NW1        N/A
* ROSCOE HILL  N/A       65  41  42 SE4        N/A
$$

REGIONAL REPORTS...DAKOTAS
CITY           SKY/WX    TMP DP  RH WIND       PRES   REMARKS
WILLISTON      CLOUDY    73  63  71 E9        30.22R
DICKINSON      PTCLDY    63  59  87 S7        30.24R
CROSBY         N/A       63  63 100 E6        30.26R
TIOGA          MOCLDY    66  66 100 E5        30.29R
WATFORD CITY   MOCLDY    68  63  84 W3        30.22R
BISMARCK       CLOUDY    72  61  68 E10       30.21F
GRAND FORKS    CLEAR     63  59  87 CALM      30.22S
FARGO          CLEAR     64  57  78 CALM      30.23S
BUFFALO SD     CLEAR     63  57  81 SE13      30.19R
RAPID CITY     TSTM      68  63  84 VRB5      30.30R
$$

REGIONAL REPORTS...WYOMING/IDAHO/WASHINGTON
CITY           SKY/WX    TMP DP  RH WIND       PRES   REMARKS
GILLETTE       PTCLDY    73  55  53 SE14      30.22R
SHERIDAN       CLOUDY    70  57  64 W12       30.31R
CODY           CLEAR     70  46  42 NW8       30.29R
YELLOWSTONE LA CLEAR     54  45  72 W3        30.48S
SALMON         CLOUDY    73  48  41 S3        30.10R
MULLAN PASS    MOCLDY    59  48  67 CALM      30.28S
SAND POINT     CLOUDY    63  55  75 NW3       30.12R
SPOKANE        CLOUDY    72  55  55 NE8       30.09R
$$

REGIONAL REPORTS...ALBERTA
CITY           SKY/WX    TMP DP  RH WIND       PRES   REMARKS
CALGARY        PTCLDY    66  46  49 S12G18    30.10R
LETHBRIDGE     MOCLDY    63  57  81 SE8       30.16R
EDMONTON       MOCLDY    68  55  63 SE14      30.07S
WATERTON GATE  N/A       59  48  67 S7         N/A
CARDSTON       N/A       63  52  68 SW8        N/A
MILK RIVER     N/A       64  54  70 NE5        N/A
$$

REGIONAL REPORTS...SASKATCHEWAN
CITY           SKY/WX    TMP DP  RH WIND       PRES   REMARKS
SWIFT CURRENT  MOCLDY    64  59  84 SE10      30.23R
REGINA         MOCLDY    66  54  65 E8        30.26R
VAL MARIE      N/A       63  55  75 E7         N/A
ASSINIBOIA     N/A       61  57  87 E6         N/A
CORONACH       N/A       68  59  73 E7         N/A

$$




USA.gov is the U.S. government's official web portal to all federal, state and local government web resources and services.